Weather History for Sharm El Sheikh, Egypt

Change the Weather History Date:

Tuesday, December 24, 2013

  Actual Average Record
Temperature  
Mean Temperature 67 °F -  
Max Temperature 77 °F - - ()
Min Temperature 57 °F - - ()
Cooling Degree Days 2    
Growing Degree Days 17 (Base 50)    
Moisture  
Dew Point 25 °F    
Average Humidity 23    
Maximum Humidity 36    
Minimum Humidity 9    
Precipitation  
Precipitation 0.00 in - - ()
Sea Level Pressure  
Sea Level Pressure 30.17 in    
Wind  
Wind Speed 6 mph ()    
Max Wind Speed 12 mph    
Max Gust Speed -    
T = Trace of Precipitation, MM = Missing Value Source: Averaged Metar Reports

Daily Weather History Graph

Daily Weather History Graph

Search for Another Location

Airport:

Trip Planner

Search our weather history database for the weather conditions in past years. The results will help you decide how hot, cold, wet, or windy it might be!

Date:

Astronomy

Dec. 24, 2013 Rise Set
Actual Time 6:30 AM EET 4:53 PM EET
Civil Twilight 6:05 AM EET 5:18 PM EET
Nautical Twilight 5:35 AM EET 5:48 PM EET
Astronomical Twilight 5:07 AM EET 6:17 PM EET
Moon 11:08 PM EET (12/24) 10:45 AM EET (12/24)
Length of Visible Light 11h 13m
Length of Day
10h 22m
Waning Gibbous, 61% of the Moon is Illuminated
Dec 24
Waning Gibbous
Dec 25
Last Quarter
Jan 1
New
Jan 8
First Quarter
Jan 16
Full

Hourly Weather History & Observations

Time (EET) Temp. Dew Point Humidity Pressure Visibility Wind Dir Wind Speed Gust Speed Precip Events Conditions
12:00 AM 59.0 °F 23.0 °F 25% 30.18 in - North 6.9 mph - N/A   Clear
1:00 AM 57.2 °F 26.6 °F 31% 30.18 in - North 5.8 mph - N/A   Clear
2:00 AM 57.2 °F 21.2 °F 25% 30.18 in - North 5.8 mph - N/A   Clear
3:00 AM 57.2 °F 24.8 °F 29% 30.15 in - North 5.8 mph - N/A   Clear
4:00 AM 57.2 °F 24.8 °F 29% 30.15 in - North 5.8 mph - N/A   Clear
5:00 AM 60.8 °F 24.8 °F 25% 30.18 in - North 5.8 mph - N/A   Clear
6:00 AM 59.0 °F 23.0 °F 25% 30.18 in - NNW 6.9 mph - N/A   Clear
7:00 AM 57.2 °F 23.0 °F 27% 30.21 in - North 6.9 mph - N/A   Clear
8:00 AM 64.4 °F 26.6 °F 24% 30.21 in - North 5.8 mph - N/A   Clear
9:00 AM 69.8 °F 28.4 °F 21% 30.21 in - North 10.4 mph - N/A   Clear
11:00 AM 75.2 °F 30.2 °F 19% 30.21 in - NNE 9.2 mph - N/A   Clear
12:00 PM 75.2 °F 30.2 °F 19% 30.18 in - North 11.5 mph - N/A   Clear
1:00 PM 77.0 °F 21.2 °F 12% 30.15 in - NNE 9.2 mph - N/A   Clear
2:00 PM 77.0 °F 14.0 °F 9% 30.15 in - ENE 8.1 mph - N/A   Clear
3:00 PM 77.0 °F 14.0 °F 9% 30.12 in - NNE 8.1 mph - N/A   Clear
4:00 PM 73.4 °F 14.0 °F 10% 30.12 in - NNE 9.2 mph - N/A   Clear
5:00 PM 68.0 °F 17.6 °F 15% 30.15 in - North 8.1 mph - N/A   Clear
6:00 PM 62.6 °F 24.8 °F 24% 30.15 in - North 5.8 mph - N/A   Clear
7:00 PM 62.6 °F 26.6 °F 26% 30.15 in - North 6.9 mph - N/A   Clear
8:00 PM 62.6 °F 32.0 °F 32% 30.15 in - North 6.9 mph - N/A   Clear
9:00 PM 60.8 °F 33.8 °F 36% 30.15 in - North 5.8 mph - N/A   Clear
10:00 PM 60.8 °F 32.0 °F 34% 30.15 in - NNW 5.8 mph - N/A   Clear
11:00 PM 62.6 °F 28.4 °F 27% 30.15 in - North 5.8 mph - N/A   Clear